x

8413320 - Bar Harbor, Me (atgm1) Weather Station

5:54 - Sat 19th Aug 2017 All times are EDT. -4 hours from GMT.

  • Wind
    5mph, 6mph gusts
  • Sea Temp 55°f
  • Ar Temp 65°f
  • Sea Pressure 1008.3mb
  • 8413320 - Bar Harbor, Me
  • 8413320 - Bar Harbor, Me

More Historic Weather Station data

Upgrade to MSW Pro to gain access to the past 30 days of data for over 8000 Wavebouys and Weather Stations around the globe.

Join

Comparision Forecast

View Surf forecast
   
Sáb 08/19 5:54 5 6 mph 1008.3mb 55f 65f
5:48 5 5 mph 1008.3mb 55f 66f
5:42 3 5 mph 1008.4mb 55f 70f
5:36 3 3 mph 1008.4mb 55f 70f
5:30 2 5 mph 1008.4mb 55f 70f
5:24 3 5 mph 1008.4mb 55f 69f
5:18 2 3 mph 1008.3mb 55f 69f
5:12 3 5 mph 1008.2mb 55f 68f
5:06 3 7 mph 1008.2mb 55f 67f
5:00 6 7 mph 1008.3mb 55f 66f
4:54 5 6 mph 1008.3mb 55f 67f
4:48 5 7 mph 1008.4mb 55f 66f
4:42 6 7 mph 1008.4mb 55f 67f
4:36 3 3 mph 1008.4mb 55f 66f
4:30 2 5 mph 1008.4mb 55f 65f
4:24 3 5 mph 1008.3mb 55f 63f
4:18 5 5 mph 1008.3mb 55f 64f
4:12 3 6 mph 1008.3mb 55f 67f
4:06 5 5 mph 1008.3mb 55f 68f
4:00 5 5 mph 1008.3mb 55f 68f
3:54 3 5 mph 1008.3mb 55f 68f
3:48 5 6 mph 1008.4mb 55f 67f
3:42 5 6 mph 1008.3mb 55f 67f
3:36 3 5 mph 1008.2mb 55f 67f
3:30 3 5 mph 1008.3mb 55f 67f
3:24 2 3 mph 1008.3mb 55f 67f
3:18 1 2 mph 1008.3mb 55f 67f
3:12 2 3 mph 1008.3mb 55f 66f
3:06 3 5 mph 1008.3mb 55f 66f
3:00  -  2 mph 1008.3mb 55f 68f
2:54 1 2 mph 1008.3mb 55f 68f
2:48  -  1 mph 1008.2mb 55f 68f
2:42 1 2 mph 1008.3mb 55f 68f
2:36 1 1 mph 1008.3mb 55f 68f
2:30 1 3 mph 1008.3mb 55f 67f
2:24 3 3 mph 1008.4mb 55f 66f
2:18 3 5 mph 1008.4mb 55f 67f
2:12 2 3 mph 1008.3mb 55f 65f
2:06 2 2 mph 1008.2mb 55f 64f
2:00  -  1 mph 1008.2mb 55f 64f
1:54 1 3 mph 1008.2mb 55f 64f
1:48 3 3 mph 1008.2mb 55f 63f
1:42 2 2 mph 1008.2mb 55f 63f
1:36 1 2 mph 1008.3mb 55f 63f
1:30 2 3 mph 1008.3mb 55f 63f
1:24 3 3 mph 1008.3mb 55f 62f
1:18 2 3 mph 1008.4mb 55f 62f
1:12 2 2 mph 1008.4mb 55f 62f
1:06 2 5 mph 1008.4mb 55f 62f
1:00 3 5 mph 1008.4mb 55f 62f
12:54 2 2 mph 1008.4mb 55f 63f
12:48 2 3 mph 1008.5mb 55f 63f
12:42 2 5 mph 1008.6mb 55f 63f
12:36 5 5 mph 1008.7mb 55f 63f
12:30 5 5 mph 1008.7mb 55f 63f
12:24 2 3 mph 1008.7mb 55f 62f
12:18 1 1 mph 1008.8mb 55f 62f
12:12  -  2 mph 1008.8mb 55f 62f
12:06 2 2 mph 1008.7mb 55f 61f
12:00 1 2 mph 1008.7mb 55f 61f
11:54  -  1 mph 1008.9mb 54f 61f
11:48 1 2 mph 1008.9mb 54f 61f
11:42 2 2 mph 1008.9mb 54f 61f
11:36 2 2 mph 1008.9mb 54f 60f
11:30  -  2 mph 1008.9mb 54f 60f
11:24 2 5 mph 1008.9mb 55f 60f
11:18 5 5 mph 1008.9mb 55f 59f
11:12 1 2 mph 1009mb 54f 60f
11:06  -  1 mph 1009.1mb 54f 60f
11:00  -  1 mph 1009.1mb 54f 60f
10:54 2 2 mph 1008.9mb 55f 59f
10:48  -  2 mph 1008.9mb 54f 60f
10:42 1 3 mph 1008.8mb 54f 61f
10:36  -  2 mph 1009mb 54f 59f
10:30 2 2 mph 1008.8mb 54f 60f
10:24 1 2 mph 1008.6mb 54f 60f
10:18  -  1 mph 1008.7mb 54f 60f
10:12  -  0 mph 1008.8mb 54f 60f
10:06  -  1 mph 1008.7mb 54f 59f
10:00  -  2 mph 1008.8mb 55f 59f
9:54 2 3 mph 1008.8mb 55f 59f
9:48 1 2 mph 1008.8mb 55f 59f
9:42 2 3 mph 1008.9mb 55f 59f
9:36 2 5 mph 1008.8mb 55f 59f
9:30 5 5 mph 1008.7mb 55f 58f
9:24 3 5 mph 1008.7mb 55f 59f
9:18 5 5 mph 1008.7mb 55f 58f
9:12 3 5 mph 1008.7mb 55f 58f
9:06 1 2 mph 1008.7mb 55f 59f
9:00  -  1 mph 1008.7mb 55f 60f
8:48 1 2 mph 1008.7mb 55f 59f
8:42  -  6 mph 1008.7mb 55f 59f
8:36 5 7 mph 1008.6mb 55f 58f
8:30 6 8 mph 1008.6mb 55f 58f
8:24 7 8 mph 1008.6mb 55f 58f
8:18 5 7 mph 1008.6mb 55f 58f
8:12 5 6 mph 1008.6mb 55f 58f
8:06 5 7 mph 1008.7mb 55f 58f
8:00 5 6 mph 1008.7mb 55f 58f
7:54 5 6 mph 1008.8mb 55f 58f
7:48 5 6 mph 1008.8mb 55f 59f
7:42 5 6 mph 1008.8mb 55f 59f
7:36 3 5 mph 1008.9mb 55f 59f
7:30 3 6 mph 1008.9mb 55f 59f
7:24 5 6 mph 1008.9mb 55f 59f
7:18 6 7 mph 1009mb 55f 59f
7:12 5 8 mph 1008.9mb 55f 59f
7:06 6 7 mph 1008.9mb 55f 59f
7:00 5 7 mph 1008.9mb 55f 60f
6:54 5 9 mph 1008.9mb 55f 60f
6:48 6 7 mph 1009mb 55f 60f
6:42 6 7 mph 1009mb 55f 60f
6:36 7 8 mph 1009mb 55f 59f
6:30 5 8 mph 1009mb 55f 59f
6:24 6 8 mph 1009.1mb 55f 60f
6:18 8 10 mph 1009.1mb 55f 60f
6:12 8 14 mph 1009mb 55f 59f
6:06 13 18 mph 1009.1mb 55f 60f
6:00 11 22 mph 1009.1mb 55f 60f
5:54 14 20 mph 1009.2mb 55f 60f
5:48 5 17 mph 1009.3mb 56f 61f
5:42 9 11 mph 1009mb 56f 61f
5:36 8 16 mph 1009.2mb 56f 61f
5:30 6 11 mph 1009.2mb 56f 61f
5:24 8 10 mph 1009.1mb 56f 61f
5:18 6 11 mph 1009mb 56f 61f
5:12 6 14 mph 1008.9mb 56f 61f
5:06 6 11 mph 1008.9mb 56f 61f
5:00 8 11 mph 1008.9mb 56f 61f
4:54 5 9 mph 1008.9mb 56f 61f
4:48 5 9 mph 1009mb 56f 61f
4:42 6 9 mph 1009.1mb 56f 61f
4:36 6 9 mph 1009.2mb 56f 61f
4:30 5 8 mph 1009.3mb 56f 60f
4:24 3 7 mph 1009.4mb 56f 60f
4:18 6 14 mph 1009.4mb 56f 61f
4:12 9 10 mph 1009.4mb 56f 60f
4:06 9 10 mph 1009.4mb 56f 59f
4:00 7 8 mph 1009.6mb 56f 59f
3:54 8 10 mph 1009.7mb 56f 59f
3:48 7 10 mph 1009.8mb 56f 58f
3:42 7 11 mph 1009.9mb 56f 58f
3:36 7 13 mph 1009.9mb 56f 58f
3:30 10 15 mph 1009.9mb 56f 58f
3:24 10 15 mph 1010mb 56f 58f
3:18 9 13 mph 1010.2mb 56f 58f
3:12 8 13 mph 1010.3mb 56f 58f
3:06 9 14 mph 1010.3mb 56f 58f
3:00 9 14 mph 1010.5mb 56f 58f
2:48 7 10 mph 1010.6mb 56f -
2:42 8 13 mph 1010.5mb 56f -
2:36 9 13 mph 1010.6mb 56f -
2:30 9 14 mph 1010.7mb 56f 58f
2:24 9 17 mph 1010.8mb 56f 58f
2:18 9 15 mph 1010.9mb 56f 58f
2:12 13 18 mph 1011mb 56f 58f
2:06 9 18 mph 1011.2mb 56f 59f
2:00 13 17 mph 1011.3mb 56f 59f
1:54 9 15 mph 1011.4mb 56f 58f
1:48 9 13 mph 1011.4mb 56f 58f
1:42 11 14 mph 1011.6mb 56f 58f
1:36 7 10 mph 1011.7mb 55f 58f
1:30 7 9 mph 1011.8mb 55f 57f
1:24 8 14 mph 1011.9mb 55f 57f
1:18 9 11 mph 1012.1mb 55f 57f
1:12 9 11 mph 1012.3mb 55f 57f
1:06 6 8 mph 1012.5mb 55f 57f
1:00 6 8 mph 1012.5mb 55f 57f
12:54 7 10 mph 1012.5mb 56f 57f
12:48 9 16 mph 1012.4mb 56f 57f
12:42 10 16 mph 1012.5mb 56f 57f
12:36 13 16 mph 1012.6mb 56f 57f
12:30 13 16 mph 1012.7mb 56f 57f
12:24 13 16 mph 1012.8mb 56f 57f
12:18 11 17 mph 1012.9mb 56f 57f
12:12 11 15 mph 1013mb 56f 57f
12:06 10 17 mph 1013mb 56f 57f
12:00 13 17 mph 1013mb 56f 57f
Sex 08/18 11:54 11 17 mph 1012.9mb 56f 58f
11:48 11 17 mph 1012.9mb 56f 58f
11:42 8 14 mph 1012.9mb 56f 57f
11:36 11 18 mph 1012.9mb 56f 58f
11:30 10 14 mph 1012.9mb 56f 58f
11:24 10 15 mph 1013mb 56f 58f
11:18 11 20 mph 1013mb 56f 58f
11:12 14 22 mph 1013.2mb 56f 58f
11:06 16 22 mph 1013.2mb 56f 58f
11:00 17 23 mph 1013.3mb 56f 58f
10:54 16 24 mph 1013.3mb 56f 58f
10:48 16 23 mph 1013.4mb 56f 58f
10:42 13 20 mph 1013.6mb 56f 58f
10:36 13 23 mph 1013.6mb 56f 58f
10:30 17 22 mph 1013.7mb 56f 58f
10:24 13 18 mph 1013.8mb 56f 58f
10:18 16 23 mph 1013.9mb 56f 58f
10:12 9 15 mph 1013.8mb 56f 58f
10:06 13 20 mph 1014mb 56f 58f
10:00 15 18 mph 1014mb 56f 58f
9:54 8 17 mph 1014mb 56f 58f
9:48 14 18 mph 1014.2mb 56f 58f
9:42 15 21 mph 1014.1mb 56f 58f
9:36 13 16 mph 1014.1mb 56f 58f
9:30 10 13 mph 1014mb 56f 58f
9:24 10 15 mph 1014mb 56f 57f
9:18 9 15 mph 1014.1mb 56f 57f
9:12 10 15 mph 1014.3mb 56f 57f
9:06 9 15 mph 1014.4mb 56f 57f
9:00 11 14 mph 1014.5mb 56f 57f
8:54 9 14 mph 1014.5mb 56f 57f
8:48 7 11 mph 1014.8mb 56f 57f
8:42 9 13 mph 1014.9mb 56f 57f
8:36 7 13 mph 1014.8mb 56f 57f
8:30 7 11 mph 1014.9mb 55f 57f
8:24 8 9 mph 1014.8mb 55f 57f
8:18 7 10 mph 1014.9mb 55f 57f
8:12 7 9 mph 1014.8mb 55f 57f
8:06 8 9 mph 1014.8mb 55f 57f
8:00 6 9 mph 1015mb 54f 57f
7:54 9 10 mph 1015mb 54f 57f
7:48 8 9 mph 1014.9mb 54f 57f
7:42 6 8 mph 1015mb 54f 57f
7:36 8 9 mph 1015mb 54f 58f
7:30 7 8 mph 1014.9mb 54f 58f
7:24 6 10 mph 1014.8mb 54f 58f
7:18 7 10 mph 1014.7mb 54f 58f
7:12 7 11 mph 1014.7mb 54f 58f
7:06 9 11 mph 1014.7mb 54f 58f
7:00 9 10 mph 1014.7mb 54f 58f
6:54 9 10 mph 1014.7mb 54f 58f
6:48 7 10 mph 1014.9mb 55f 58f
6:42 8 10 mph 1014.9mb 55f 58f
6:36 9 10 mph 1014.9mb 55f 58f
6:30 8 9 mph 1014.9mb 55f 58f
6:24 6 8 mph 1014.8mb 56f 58f
6:18 6 8 mph 1014.9mb 56f 59f
6:12 7 8 mph 1014.9mb 56f 59f
6:06 6 7 mph 1014.7mb 57f 59f
6:00 3 5 mph 1014.7mb 56f 59f
5:54 3 6 mph 1014.7mb 56f 59f
5:48 5 6 mph 1014.6mb 56f 59f
5:42 3 6 mph 1014.7mb 56f 59f
5:36 6 6 mph 1014.7mb 56f 59f
5:30 5 6 mph 1014.9mb 57f 59f
5:24 3 6 mph 1014.9mb 57f 59f
5:18 6 8 mph 1014.8mb 57f 59f
5:12 5 7 mph 1014.9mb 57f 59f
5:06 5 8 mph 1014.9mb 57f 59f
5:00 5 7 mph 1015.1mb 57f 59f
4:54 5 6 mph 1015.1mb 57f 59f
4:48 5 8 mph 1015.1mb 57f 59f
4:42 7 9 mph 1015.1mb 57f 59f
4:36 7 8 mph 1015mb 58f 59f
4:30 3 7 mph 1015.2mb 58f 59f
4:24 6 8 mph 1015.1mb 58f 59f
4:18 5 8 mph 1015.1mb 58f 59f
4:12 6 8 mph 1015.1mb 58f 59f
4:06 5 7 mph 1015.2mb 58f 59f
4:00 6 10 mph 1015.2mb 58f 59f
3:54 7 13 mph 1015.1mb 58f 59f
3:48 10 11 mph 1015.2mb 58f 58f
3:42 8 11 mph 1015.3mb 58f 58f
3:36 10 13 mph 1015.3mb 58f 59f
3:30 10 13 mph 1015.1mb 58f 58f
3:24 10 13 mph 1015.2mb 58f 59f
3:18 10 13 mph 1015.3mb 58f 59f
3:12 10 13 mph 1015.4mb 58f 59f
3:06 10 13 mph 1015.5mb 58f 60f
3:00 10 15 mph 1015.6mb 58f 60f
2:54 8 13 mph 1015.6mb 58f 60f
2:48 8 11 mph 1015.5mb 58f 61f
2:42 7 9 mph 1015.5mb 58f 61f
2:36 6 8 mph 1015.5mb 58f 61f
2:30 5 8 mph 1015.7mb 58f 61f
2:24 7 10 mph 1015.7mb 58f 60f
2:18 8 10 mph 1015.7mb 58f 60f
2:12 9 11 mph 1015.8mb 58f 60f
2:06 8 13 mph 1015.8mb 58f 60f
2:00 9 11 mph 1016mb 58f 60f
1:54 8 11 mph 1016mb 58f 60f
1:48 8 11 mph 1016.1mb 58f 60f
1:42 7 9 mph 1016.2mb 58f 60f
1:36 6 8 mph 1016.3mb 58f 60f
1:30 3 7 mph 1016.3mb 58f 60f
1:24 5 10 mph 1016.1mb 58f 60f
1:18 5 9 mph 1016.1mb 58f 61f
1:12 7 11 mph 1016.1mb 58f 61f
1:06 7 10 mph 1016.1mb 58f 61f
1:00 6 10 mph 1016.1mb 58f 61f
12:54 7 10 mph 1016.3mb 58f 62f
12:48 8 11 mph 1016.3mb 58f 61f
12:42 6 10 mph 1016.4mb 58f 62f
12:36 8 13 mph 1016.4mb 58f 62f
12:30 8 13 mph 1016.5mb 58f 62f
12:24 9 13 mph 1016.5mb 58f 62f
12:18 9 10 mph 1016.5mb 58f 62f
12:12 8 13 mph 1016.5mb 58f 63f
12:06 9 11 mph 1016.4mb 58f 63f
12:00 9 11 mph 1016.4mb 58f 63f
11:54 7 11 mph 1016.3mb 58f 63f
11:48 8 10 mph 1016.4mb 58f 63f
11:42 8 13 mph 1016.4mb 58f 62f
11:36 10 14 mph 1016.6mb 58f 63f
11:30 8 13 mph 1016.7mb 58f 63f
11:24 8 14 mph 1016.6mb 58f 63f
11:18 9 13 mph 1016.6mb 58f 62f
11:12 9 14 mph 1016.5mb 58f 62f
11:06 7 10 mph 1016.4mb 58f 63f
11:00 7 13 mph 1016.4mb 58f 62f
10:54 11 14 mph 1016.2mb 58f 61f
10:48 10 14 mph 1016.3mb 58f 61f
10:42 10 14 mph 1016.4mb 58f 61f
10:36 9 11 mph 1016.5mb 58f 61f
10:30 9 13 mph 1016.6mb 58f 62f
10:24 8 13 mph 1016.6mb 58f 62f
10:18 9 11 mph 1016.5mb 58f 62f
10:12 8 11 mph 1016.5mb 58f 63f
10:06 8 11 mph 1016.5mb 58f 62f
10:00 8 14 mph 1016.5mb 58f 63f
9:54 10 15 mph 1016.1mb 57f 62f
9:48 11 14 mph 1016mb 58f 63f
9:42 9 15 mph 1016.1mb 57f 64f
9:36 11 16 mph 1016mb 57f 64f
9:30 10 14 mph 1015.9mb 57f 64f
9:12 13 15 mph 1016mb 57f 63f
9:06 11 14 mph 1015.9mb 56f 63f
9:00 9 11 mph 1015.9mb 56f 63f
8:54 6 9 mph 1015.9mb 56f 63f
8:48 3 6 mph 1016mb 56f 62f
8:42 5 6 mph 1016mb 56f 61f
8:36 2 5 mph 1016mb 56f 61f
8:30 2 3 mph 1015.8mb 57f 59f
8:24 1 2 mph 1015.9mb 56f 59f
8:18  -  1 mph 1015.9mb 56f 60f
8:12  -  1 mph 1016mb 56f 59f
8:06  -  2 mph 1016mb 56f 59f
8:00 2 5 mph 1016mb 56f 58f
7:54 3 5 mph 1016.1mb 56f 58f
7:48  -  2 mph 1016.1mb 56f 59f
7:42 1 3 mph 1016.1mb 55f 59f
7:36 2 2 mph 1016.1mb 55f 59f
7:30 2 2 mph 1016.1mb 55f 59f
7:24  -  2 mph 1016.1mb 55f 58f
7:18 1 2 mph 1016mb 55f 58f
7:12  -  2 mph 1015.9mb 55f 58f
7:06 2 2 mph 1015.9mb 55f 57f
7:00 2 3 mph 1016mb 55f 57f
6:54 2 5 mph 1016.2mb 56f 57f
6:48 2 3 mph 1016.1mb 56f 57f
6:42  -  1 mph 1015.9mb 56f 57f
6:36  -  1 mph 1015.7mb 56f 57f
6:30 1 3 mph 1015.8mb 56f 57f
6:24 1 2 mph 1015.7mb 56f 57f
6:18  -  1 mph 1015.6mb 56f 57f
6:12  -  2 mph 1015.6mb 57f 57f
6:06  -  1 mph 1015.6mb 56f 57f
6:00  -  2 mph 1015.5mb 57f 57f
5:54 1 1 mph 1015.5mb 57f 57f
5:48  -  1 mph 1015.5mb 57f 56f
5:42  -  1 mph 1015.6mb 58f 56f
5:36  -  1 mph 1015.5mb 58f 56f
5:30  -  1 mph 1015.5mb 58f 56f
5:24  -  1 mph 1015.5mb 58f 56f
5:18 1 1 mph 1015.4mb 58f 56f
5:12  -  1 mph 1015.5mb 59f 56f
5:06  -  1 mph 1015.5mb 59f 56f
5:00  -  1 mph 1015.4mb 58f 56f
4:54  -  1 mph 1015.4mb 58f 57f
4:48  -  1 mph 1015.5mb 58f 57f
4:42 1 3 mph 1015.4mb 58f 57f
4:36 2 3 mph 1015.4mb 58f 57f
4:30 2 3 mph 1015.4mb 59f 57f
4:24 2 2 mph 1015.4mb 58f 57f
4:18 2 2 mph 1015.4mb 58f 57f
4:12  -  2 mph 1015.3mb 58f 57f
4:06 2 3 mph 1015.3mb 58f 57f
4:00 2 3 mph 1015.3mb 59f 57f
3:54 3 5 mph 1015.3mb 59f 57f
3:48 5 6 mph 1015.4mb 59f 57f
3:42 3 3 mph 1015.4mb 60f 57f
3:36 3 5 mph 1015.4mb 60f 57f
3:30 3 3 mph 1015.4mb 60f 57f
3:24 2 3 mph 1015.2mb 60f 58f
3:18 2 3 mph 1015.3mb 60f 58f
3:12 1 2 mph 1015.2mb 60f 58f
3:06 2 3 mph 1015.2mb 60f 58f
3:00 3 3 mph 1015.1mb 60f 58f
2:54 1 2 mph 1015.1mb 60f 59f
2:48 2 2 mph 1015.3mb - -
2:42 2 2 mph 1015.3mb - -
2:36 1 1 mph 1015.4mb - -
2:30  -  2 mph 1015.4mb 60f 59f
2:24  -  1 mph 1015.5mb 60f 60f
2:18  -  0 mph 1015.5mb 60f 60f
2:12  -  0 mph 1015.7mb 60f 60f
2:06  -  1 mph 1015.7mb 60f 61f
2:00  -  2 mph 1015.8mb 60f 60f
1:54 2 2 mph 1015.7mb 60f 60f
1:48  -  1 mph 1015.7mb 60f -
1:42  -  1 mph 1015.6mb 60f -
1:36  -  1 mph 1015.5mb 60f -
1:30  -  1 mph 1015.5mb 60f 62f
1:24 1 1 mph 1015.5mb 60f 62f
1:18 1 3 mph 1015.5mb 60f 62f
1:12 2 2 mph 1015.6mb 60f 62f
1:06 1 2 mph 1015.6mb 60f 62f
1:00 2 5 mph 1015.6mb 60f 62f
12:54 3 5 mph 1015.6mb 60f 62f
12:48 3 5 mph 1015.5mb 60f 61f
12:42 3 5 mph 1015.6mb 60f 61f
12:36 3 6 mph 1015.6mb 60f 61f
12:30 6 7 mph 1015.6mb 60f 62f
12:24 3 13 mph 1015.5mb 60f 62f
12:18 7 14 mph 1015.5mb 60f 60f
12:12 1 5 mph 1015.4mb 60f 63f
12:06 3 3 mph 1015.2mb 60f 64f
12:00 2 3 mph 1015.3mb 60f 65f
Qui 08/17 11:54 3 3 mph 1015.2mb 60f 66f
11:48 2 2 mph 1015.3mb 60f 67f
11:42 2 2 mph 1015.3mb 60f 67f
11:36 2 5 mph 1015.2mb 60f 66f
11:30 3 3 mph 1015.4mb 60f 67f
11:24 3 5 mph 1015.4mb 60f 65f
11:18 3 5 mph 1015.4mb 60f 66f
11:12 2 3 mph 1015.4mb 60f 67f
11:06 3 3 mph 1015.3mb 60f 66f
11:00 2 3 mph 1015.3mb 60f 67f
10:54 2 2 mph 1015.3mb 60f 66f
10:48 2 2 mph 1015.2mb 60f 65f
10:42  -  1 mph 1015.2mb 60f 64f
10:36  -  3 mph 1015.2mb 60f 65f
10:30 3 5 mph 1015.1mb 60f 66f
10:24 1 2 mph 1015mb 60f 66f
10:18 1 2 mph 1015mb 59f 67f
10:12  -  2 mph 1014.9mb 59f 67f
10:06 2 5 mph 1014.9mb 59f 68f
10:00 3 5 mph 1014.8mb 59f 69f
9:54 3 5 mph 1014.8mb 59f 69f
9:48 5 6 mph 1014.7mb 59f 69f
9:30 3 5 mph 1014.6mb 59f 70f
9:24 2 7 mph 1014.6mb 59f 69f
9:18 6 8 mph 1014.3mb 58f 70f
9:12 5 6 mph 1014.3mb 58f 69f
9:06 3 5 mph 1014.4mb 58f 69f
9:00 2 5 mph 1014.3mb 58f 69f
8:54 3 3 mph 1014.2mb 58f 69f
8:48 3 6 mph 1014.3mb 58f 69f
8:42 5 6 mph 1014.1mb 58f 69f
8:36 5 6 mph 1014.1mb 58f 69f
8:30 3 3 mph 1014.2mb 58f 69f
8:24 2 6 mph 1014.1mb 58f 68f
8:18 6 7 mph 1014mb 58f 68f
8:12 8 9 mph 1013.8mb 57f 70f
8:06 6 6 mph 1013.8mb 57f 70f
8:00 5 8 mph 1013.7mb 56f 71f
7:54 6 9 mph 1013.6mb 56f 72f
7:48 8 9 mph 1013.4mb 56f 72f
7:42 5 7 mph 1013.5mb 55f 72f
7:36 1 2 mph 1013.5mb 55f 72f
7:30 2 5 mph 1013.4mb 55f 72f
7:24 3 6 mph 1013.4mb 55f 73f
7:18 5 7 mph 1013.4mb 55f 73f
7:12 6 8 mph 1013.4mb 55f 72f
7:06 7 13 mph 1013.3mb 55f 73f
7:00 8 10 mph 1013.3mb 55f 73f
6:54 8 10 mph 1013.3mb 55f 71f
6:48 9 13 mph 1013.2mb 55f 71f
6:42 10 13 mph 1013.1mb 55f 72f
6:36 11 14 mph 1013mb 54f 72f
6:30 10 13 mph 1012.9mb 54f 72f
6:24 10 16 mph 1012.7mb 54f 73f
6:18 13 16 mph 1012.6mb 54f 73f
6:12 11 15 mph 1012.5mb 54f 74f
6:06 11 15 mph 1012.5mb 55f 75f
6:00 11 16 mph 1012.5mb 55f 73f
5:54 15 17 mph 1012.4mb 55f 74f
5:48 14 17 mph 1012.3mb 55f 73f
5:42 11 21 mph 1012.2mb 55f 75f
5:36 14 20 mph 1012.1mb 56f 76f
5:30 14 20 mph 1012.1mb 56f 76f
5:24 15 18 mph 1012mb 56f 76f
5:18 13 20 mph 1012mb 57f 74f
5:12 15 22 mph 1011.9mb 56f 75f
5:06 17 23 mph 1011.8mb 56f 75f
5:00 15 22 mph 1011.8mb 56f 75f
4:54 17 25 mph 1011.7mb 57f 75f
4:48 16 21 mph 1011.7mb 58f 76f
4:42 16 21 mph 1011.7mb 58f 74f
4:36 15 24 mph 1011.7mb 58f 75f
4:30 16 18 mph 1011.6mb 58f 75f
4:24 17 22 mph 1011.6mb 58f 75f
4:18 14 18 mph 1011.7mb 59f 75f
4:12 18 24 mph 1011.7mb 58f 75f
4:06 21 26 mph 1011.6mb 58f 75f
4:00 20 24 mph 1011.5mb 58f 75f
3:54 20 23 mph 1011.5mb 58f 75f
3:48 18 24 mph 1011.5mb 58f 76f
3:42 15 23 mph 1011.6mb 58f 76f
3:36 21 25 mph 1011.6mb 58f 75f
3:30 14 23 mph 1011.6mb 59f 76f
3:24 17 22 mph 1011.6mb 59f 75f
3:18 18 24 mph 1011.5mb 59f 75f
3:12 15 20 mph 1011.6mb 59f 75f
3:06 14 23 mph 1011.7mb 59f 75f
3:00 14 20 mph 1011.8mb 59f 74f
2:54 13 17 mph 1011.8mb 59f 74f
2:48 14 25 mph 1011.9mb 59f 74f
2:42 15 23 mph 1011.8mb 60f 74f
2:36 10 21 mph 1011.9mb 60f 74f
2:30 15 22 mph 1011.9mb 60f 73f
2:24 13 25 mph 1012mb 59f 74f
2:18 15 24 mph 1011.8mb 60f 74f
2:12 15 23 mph 1011.9mb 60f 74f
2:06 16 21 mph 1011.9mb 60f 73f
2:00 17 26 mph 1012mb 60f 73f
1:54 15 23 mph 1012.1mb 60f 73f
1:48 13 23 mph 1012.2mb 60f 73f
1:42 17 25 mph 1012.2mb 60f 73f
1:36 20 22 mph 1012.1mb 60f 72f
1:30 11 20 mph 1012.3mb 60f 73f
1:24 16 23 mph 1012.5mb 60f 72f
1:18 17 22 mph 1012.4mb 60f 72f
1:12 18 23 mph 1012.3mb 60f 72f
1:06 16 23 mph 1012.4mb 60f 71f
1:00 17 22 mph 1012.3mb 60f 71f
12:54 17 24 mph 1012.4mb 60f 71f
12:48 20 26 mph 1012.4mb 60f 71f
12:42 14 20 mph 1012.5mb 60f 71f
12:36 21 28 mph 1012.6mb 60f 70f
12:30 22 26 mph 1012.6mb 60f 70f
12:24 16 24 mph 1012.7mb 60f 70f
12:18 20 28 mph 1012.7mb 60f 70f
12:12 21 26 mph 1012.8mb 60f 70f
12:06 14 24 mph 1012.9mb 60f 69f
12:00 18 25 mph 1013mb 59f 69f
11:54 23 30 mph 1013mb 59f 69f
11:48 17 23 mph 1013.2mb 59f 69f
11:42 16 23 mph 1013.3mb 59f 69f
11:36 16 22 mph 1013.2mb 59f 69f
11:30 13 24 mph 1013.4mb 59f 68f
11:24 17 23 mph 1013.4mb 59f 68f
11:18 16 24 mph 1013.4mb 59f 68f
11:12 18 24 mph 1013.4mb 59f 68f
11:06 17 25 mph 1013.5mb 59f 68f
11:00 18 23 mph 1013.6mb 59f 68f
10:54 17 25 mph 1013.6mb 59f 67f
10:48 18 24 mph 1013.7mb 59f 67f
10:42 16 24 mph 1013.7mb 59f 67f
10:36 14 21 mph 1013.7mb 59f 67f
10:30 16 25 mph 1013.7mb 59f 66f
10:24 16 21 mph 1013.7mb 59f 66f
10:18 15 22 mph 1013.9mb 59f 66f
10:12 17 22 mph 1013.9mb 59f 65f
10:06 17 21 mph 1014mb 59f 65f
10:00 11 16 mph 1014.1mb 59f 65f
9:54 14 18 mph 1014.1mb 58f 65f
9:48 11 17 mph 1014.2mb 59f 65f
9:42 15 21 mph 1014.1mb 58f 64f
9:36 14 21 mph 1014mb 58f 64f
9:30 14 21 mph 1014.1mb 58f 64f
9:24 16 22 mph 1014.1mb 58f 64f
9:18 14 17 mph 1014.2mb 58f 64f
9:12 11 17 mph 1014.2mb 58f 64f
9:06 15 18 mph 1014.1mb 58f 63f
9:00 14 18 mph 1014.2mb 58f 63f
8:54 14 18 mph 1014.3mb 58f 63f
8:48 11 18 mph 1014.2mb 57f 63f
8:42 9 18 mph 1014.2mb 57f 63f
8:36 11 16 mph 1014.2mb 57f 62f
8:30 10 16 mph 1014.3mb 57f 62f
8:24 10 15 mph 1014.4mb 58f 62f
8:18 9 17 mph 1014.3mb 58f 61f
8:12 10 21 mph 1014.3mb 58f 61f
8:06 9 15 mph 1014.4mb 57f 61f
8:00 10 16 mph 1014.4mb 57f 60f
7:54 10 15 mph 1014.6mb 58f 60f
7:48 9 15 mph 1014.5mb 57f 60f
7:42 10 16 mph 1014.4mb 57f 60f
7:36 10 16 mph 1014.5mb 58f 60f
7:30 10 18 mph 1014.5mb 58f 60f
7:24 10 17 mph 1014.4mb 58f 59f
7:18 10 16 mph 1014.4mb 58f 59f
7:12 10 15 mph 1014.4mb 58f 59f
7:06 9 16 mph 1014.3mb 58f 59f
7:00 9 16 mph 1014.2mb 56f 59f
6:54 9 13 mph 1014mb 56f 59f
6:48 9 16 mph 1014mb 56f 59f
6:42 7 16 mph 1013.9mb 56f 59f
6:36 11 17 mph 1013.7mb 56f 59f
6:30 13 16 mph 1013.6mb 56f 59f
6:24 14 20 mph 1013.6mb 56f 59f
6:18 11 16 mph 1013.7mb 57f 59f
6:12 9 15 mph 1013.7mb 57f 59f
6:06 8 13 mph 1013.6mb 56f 59f
6:00 8 14 mph 1013.6mb 56f 59f
5:54 8 14 mph 1013.7mb 55f 58f
5:48 9 16 mph 1013.7mb 55f 59f
5:42 8 15 mph 1013.7mb 55f 59f
5:36 9 13 mph 1013.6mb 55f 58f
5:30 9 14 mph 1013.5mb 55f 59f
5:24 10 17 mph 1013.5mb 56f 59f
5:18 8 14 mph 1013.5mb 56f 59f
5:12 8 15 mph 1013.6mb 56f 59f
5:06 9 15 mph 1013.6mb 56f 59f
5:00 8 15 mph 1013.6mb 57f 59f
4:54 10 17 mph 1013.7mb 57f 60f
4:48 8 14 mph 1013.7mb 58f 60f
4:42 8 14 mph 1013.6mb 58f 59f
4:36 9 15 mph 1013.5mb 58f 60f
4:30 8 15 mph 1013.5mb 57f 60f
4:24 10 17 mph 1013.4mb 57f 60f
4:18 11 16 mph 1013.4mb 57f 60f
4:12 9 16 mph 1013.4mb 57f 60f
4:06 10 15 mph 1013.4mb 58f 60f
4:00 10 16 mph 1013.3mb 58f 60f
3:54 7 15 mph 1013.3mb 58f 59f
3:48 9 13 mph 1013.3mb 58f 59f
3:42 9 14 mph 1013.3mb 58f 60f
3:36 7 13 mph 1013.4mb 59f 60f
3:30  -  mph 1013.4mb 59f 60f
3:24  -  mph 1013.5mb 58f 60f
3:18 9 14 mph 1013.6mb 58f 60f
3:12 8 16 mph 1013.5mb 59f 60f
3:06 7 15 mph 1013.6mb 59f 60f
3:00 8 13 mph 1013.6mb 59f 60f
2:54 8 13 mph 1013.6mb 59f 60f
2:48 7 13 mph 1013.6mb 60f -
2:42 9 13 mph 1013.7mb 59f -
2:36 8 14 mph 1013.7mb 59f -
2:30 9 14 mph 1013.7mb 59f 61f
2:24 8 14 mph 1013.7mb 60f 62f
2:18 8 14 mph 1013.7mb 60f 62f
2:12 8 14 mph 1013.8mb 60f 62f
2:06 8 15 mph 1013.7mb 60f 62f
2:00 9 14 mph 1013.8mb 60f 62f
1:54 7 14 mph 1013.8mb 60f 62f
1:48 8 14 mph 1013.8mb 60f 62f
1:42 9 13 mph 1013.8mb 60f 62f
1:36 8 14 mph 1013.9mb 60f 62f
1:30 9 15 mph 1013.9mb 60f 62f
1:24 8 13 mph 1014mb 60f 62f
1:18 8 13 mph 1014mb 60f 62f
1:12 9 13 mph 1014mb 60f 62f
1:06 8 15 mph 1014mb 60f 62f
1:00 13 16 mph 1013.9mb 60f 62f
12:54 11 16 mph 1013.8mb 60f 62f
12:48 13 16 mph 1013.8mb 60f 62f
12:42 14 18 mph 1013.8mb 60f 62f
12:36 13 17 mph 1013.9mb 60f 62f
12:30 14 16 mph 1013.9mb 60f 63f
12:24 13 17 mph 1013.9mb 60f 63f
12:18 13 17 mph 1013.9mb 60f 63f
12:12 15 20 mph 1013.9mb 60f 63f
12:06 14 20 mph 1013.9mb 60f 63f
12:00 14 18 mph 1014mb 60f 63f
Qua 08/16 11:54 13 16 mph 1014mb 60f 63f
11:48 9 14 mph 1014mb 60f 63f
11:42 8 15 mph 1014mb 60f 63f
11:36 10 14 mph 1014mb 60f 63f
11:30 13 17 mph 1013.9mb 60f 64f
11:24 16 21 mph 1013.9mb 61f 64f
11:18 14 16 mph 1014mb 61f 64f
11:12 11 16 mph 1014mb 61f 64f
11:06 10 14 mph 1014mb 61f 64f
11:00 10 15 mph 1014.1mb 61f 64f
10:54 10 15 mph 1014.2mb 61f 64f
10:48 10 14 mph 1014.2mb 61f 64f
10:42 9 14 mph 1014.2mb 61f 65f
10:36 10 14 mph 1014.3mb 61f 65f
10:30 10 14 mph 1014.3mb 61f 65f
10:24 11 14 mph 1014.2mb 61f 65f
10:18 9 14 mph 1014.2mb 61f 65f
10:12 13 14 mph 1014.1mb 61f 65f
10:06 11 13 mph 1014.1mb 61f 65f
10:00 10 11 mph 1014mb 61f 64f
9:54 10 13 mph 1014mb 61f 65f
9:48 10 14 mph 1013.9mb 61f 65f
9:42 13 14 mph 1013.7mb 61f 65f
9:36 14 15 mph 1013.7mb 61f 65f
9:30 13 15 mph 1013.7mb 61f 65f
9:24 13 15 mph 1013.7mb 61f 65f
9:18 13 15 mph 1013.7mb 61f 66f
9:12 13 15 mph 1013.7mb 60f 67f
9:06 13 16 mph 1013.7mb 60f 67f
9:00 13 16 mph 1013.6mb 60f 67f
8:54 13 15 mph 1013.5mb 60f 67f
8:48 11 15 mph 1013.4mb 60f 67f
8:42 11 14 mph 1013.2mb 60f 68f
8:36 13 15 mph 1013.2mb 60f 68f
8:30 11 15 mph 1013.1mb 60f 67f
8:24 11 14 mph 1013mb 60f 67f
8:18 10 13 mph 1012.9mb 60f 68f
8:12 8 10 mph 1012.8mb 60f 68f
8:06 7 8 mph 1012.7mb 60f 67f
8:00 7 9 mph 1012.6mb 60f 68f
7:54 7 13 mph 1012.5mb 60f 68f
7:48 7 8 mph 1012.4mb 60f 69f
7:42 8 10 mph 1012.4mb 60f 69f
7:36 8 10 mph 1012.3mb 60f 68f
7:30 8 10 mph 1012.2mb 60f 69f
7:24 8 10 mph 1012.1mb 60f 69f
7:18 9 14 mph 1012mb 60f 69f
7:12 11 14 mph 1012mb 59f 69f
7:06 14 16 mph 1011.9mb 60f 70f
7:00 15 20 mph 1011.8mb 59f 71f
6:54 15 20 mph 1011.6mb 60f 71f
6:48 16 20 mph 1011.6mb 61f 71f
6:42 17 20 mph 1011.5mb 60f 71f
6:36 18 23 mph 1011.4mb 59f 72f
6:30 16 21 mph 1011.2mb 60f 72f
6:24 16 21 mph 1011.2mb 60f 71f
6:18 16 21 mph 1011.1mb 61f 71f
6:12 20 23 mph 1011mb 60f 72f
6:06 17 21 mph 1010.9mb 60f 72f
6:00 15 20 mph 1010.9mb 59f 72f
5:54 11 15 mph 1010.9mb 57f 71f
5:48 15 18 mph 1010.8mb 57f 72f
5:42 13 15 mph 1010.8mb 58f 73f
5:36 14 20 mph 1010.9mb 58f 73f
5:30 14 17 mph 1010.8mb 58f 72f
5:24 15 21 mph 1010.9mb 56f 73f
5:18 16 22 mph 1010.9mb 57f 72f
5:12 17 22 mph 1010.8mb 57f 72f
5:06 22 24 mph 1010.8mb 58f 73f
5:00 21 25 mph 1010.7mb 57f 72f
4:54 15 23 mph 1010.7mb 56f 73f
4:48 18 25 mph 1010.7mb 57f 73f
4:42 21 23 mph 1010.6mb 56f 72f
4:36 22 26 mph 1010.7mb 57f 73f
4:30 20 24 mph 1010.6mb 57f 73f
4:24 17 23 mph 1010.6mb 59f 73f
4:18 21 23 mph 1010.6mb 58f 73f
4:12 20 22 mph 1010.6mb 56f 73f
4:06 21 24 mph 1010.6mb 56f 73f
4:00 18 22 mph 1010.6mb 57f 73f
3:54 16 20 mph 1010.6mb 57f 73f
3:48 15 18 mph 1010.7mb 57f 73f
3:42 16 21 mph 1010.8mb 58f 74f
3:36 13 15 mph 1010.7mb 59f 73f
3:30 14 18 mph 1010.8mb 59f 73f
3:24 14 20 mph 1010.8mb 59f 74f
3:18 14 20 mph 1010.7mb 59f 74f
3:12 14 21 mph 1010.7mb 59f 74f
3:06 16 21 mph 1010.6mb 60f 74f
3:00 14 21 mph 1010.6mb 60f 74f
2:54 13 22 mph 1010.5mb 60f 73f
2:48 15 21 mph 1010.5mb 59f 74f
2:42 14 17 mph 1010.6mb 60f 73f
2:36 14 20 mph 1010.7mb 60f 73f
2:30 11 20 mph 1010.6mb 60f 74f
2:24 14 20 mph 1010.6mb 60f 73f
2:18 17 22 mph 1010.5mb 60f 73f
2:12 13 20 mph 1010.5mb 60f 74f
2:06 11 15 mph 1010.5mb 60f 73f
2:00 11 15 mph 1010.4mb 60f 73f
1:54 9 14 mph 1010.5mb 60f 73f
1:48 15 20 mph 1010.5mb 60f 73f
1:42 14 16 mph 1010.4mb 60f 74f
1:36 13 21 mph 1010.4mb 60f 74f
1:30 17 21 mph 1010.4mb 60f 74f
1:24 13 15 mph 1010.4mb 60f 73f
1:18 14 18 mph 1010.6mb 60f 73f
1:12 13 17 mph 1010.6mb 60f 73f
1:06 15 20 mph 1010.5mb 60f 74f
1:00 16 24 mph 1010.5mb 60f 74f
12:54 20 22 mph 1010.4mb 60f 74f
12:48 10 16 mph 1010.7mb 60f 72f
12:42 9 14 mph 1010.7mb 60f 72f
12:36 11 16 mph 1010.7mb 60f 73f
12:30 14 17 mph 1010.7mb 59f 73f
12:24 9 13 mph 1010.8mb 60f 72f
12:18 8 10 mph 1010.8mb 60f 72f
12:12 7 10 mph 1010.8mb 60f 72f
12:06 9 11 mph 1010.9mb 59f 72f
12:00 9 11 mph 1010.9mb 59f 71f
11:54 9 14 mph 1011mb 59f 71f
11:48 9 11 mph 1011mb 59f 71f
11:42 9 15 mph 1011.1mb 59f 71f
11:36 9 15 mph 1011.1mb 59f 71f
11:30 13 16 mph 1011.2mb 59f 71f
11:24 14 18 mph 1011.2mb 59f 71f
11:18 15 20 mph 1011.2mb 59f 71f
11:12 14 18 mph 1011.2mb 59f 70f
11:06 14 18 mph 1011.2mb 59f 71f
11:00 15 21 mph 1011.2mb 59f 71f
10:54 14 20 mph 1011.2mb 59f 71f
10:48 14 20 mph 1011.2mb 59f 71f
10:42 13 16 mph 1011.1mb 59f 71f
10:36 11 14 mph 1011.2mb 59f 71f
10:30 9 13 mph 1011.1mb 59f 71f
10:24 8 11 mph 1011.2mb 59f 71f
10:18 8 14 mph 1011.1mb 59f 71f
10:12 9 14 mph 1011.1mb 59f 71f
10:06 9 11 mph 1011.2mb 59f 71f
10:00 8 11 mph 1011.2mb 58f 70f
9:54 9 13 mph 1011.3mb 58f 70f
9:48 11 14 mph 1011.3mb 58f 70f
9:42 10 13 mph 1011.2mb 58f 70f
9:36 11 15 mph 1011.2mb 58f 70f
9:30 11 15 mph 1011.1mb 58f 70f
9:24 11 17 mph 1011.2mb 57f 69f
9:18 13 15 mph 1011.1mb 57f 69f
9:12 14 16 mph 1011.1mb 57f 69f
9:06 13 16 mph 1011.1mb 57f 69f
9:00 15 20 mph 1011.1mb 57f 69f
8:54 16 20 mph 1011.1mb 57f 69f
8:48 13 18 mph 1011.1mb 57f 68f
8:42 14 18 mph 1011mb 57f 68f
8:36 15 18 mph 1011.1mb 57f 68f
8:30 15 20 mph 1011.1mb 57f 68f
8:24 16 17 mph 1011.1mb 57f 68f
8:18 10 13 mph 1011.1mb 57f 68f
8:12 8 11 mph 1011.1mb 57f 67f
8:06 9 11 mph 1011mb 57f 67f
8:00 10 11 mph 1010.9mb 57f 67f
7:54 10 13 mph 1010.8mb 57f 67f
7:48 8 9 mph 1010.8mb 57f 66f
7:42 7 8 mph 1010.8mb 57f 66f
7:36 7 9 mph 1010.8mb 57f 67f
7:30 6 7 mph 1010.9mb 57f 66f
7:24 5 6 mph 1010.9mb 57f 65f
7:18 5 6 mph 1010.7mb 57f 66f
7:12 5 6 mph 1010.7mb 57f 65f
7:06 5 6 mph 1010.6mb 57f 65f
7:00 6 7 mph 1010.6mb 57f 65f
6:54 6 7 mph 1010.6mb 57f 65f
6:48 6 8 mph 1010.6mb 57f 65f
6:42 7 9 mph 1010.6mb 57f 65f
6:36 7 9 mph 1010.5mb 57f 65f
6:30 7 10 mph 1010.5mb 57f 65f
6:24 8 11 mph 1010.4mb 57f 64f
6:18 9 10 mph 1010.4mb 57f 64f
6:12 8 10 mph 1010.3mb 57f 64f
6:06 9 10 mph 1010.2mb 57f 64f
6:00 8 11 mph 1010.2mb 57f 64f
5:54 10 11 mph 1010.2mb 57f 64f
5:48 9 11 mph 1010.1mb 57f 64f
5:42 8 11 mph 1010.1mb 57f 64f
5:36 9 11 mph 1010mb 57f 64f
5:30 10 11 mph 1010mb 57f 64f
5:24 10 11 mph 1010mb 57f 64f
5:18 9 10 mph 1009.9mb 57f 64f
5:12 8 9 mph 1009.9mb 57f 64f
5:06 8 10 mph 1009.8mb 57f 65f
5:00 9 10 mph 1009.7mb 57f 65f
4:54 7 9 mph 1009.6mb 57f 65f
4:48 8 11 mph 1009.6mb 56f 65f
4:42 6 7 mph 1009.7mb 56f 65f
4:36 5 9 mph 1009.6mb 56f 65f
4:30 8 10 mph 1009.6mb 56f 65f
4:24 6 7 mph 1009.5mb 56f 65f
4:18 5 7 mph 1009.6mb 56f 66f
4:12 3 6 mph 1009.6mb 55f 65f
4:06 3 5 mph 1009.6mb 55f 65f
4:00 5 6 mph 1009.7mb 55f 65f
3:54 3 5 mph 1009.6mb 55f 65f
3:48 5 6 mph 1009.5mb 55f 65f
3:42 5 6 mph 1009.5mb 55f 65f
3:36 5 6 mph 1009.6mb 55f 65f
3:30 5 6 mph 1009.6mb 55f 65f
3:24 6 8 mph 1009.7mb 55f 65f
3:18 6 7 mph 1009.7mb 55f 65f
3:12 5 8 mph 1009.6mb 55f 65f
3:06 6 9 mph 1009.5mb 56f 66f
3:00 6 8 mph 1009.4mb 56f 66f
2:54 6 9 mph 1009.4mb 56f 66f
2:48 6 8 mph 1009.3mb 56f 65f
2:42 7 8 mph 1009.2mb 56f 66f
2:36 6 7 mph 1009.2mb 56f 67f
2:30 6 9 mph 1009.2mb 56f 67f
2:24 3 13 mph 1009.1mb 56f 67f
2:18 8 14 mph 1009.1mb 56f 67f
2:12 9 16 mph 1009.1mb 56f 67f
2:06 8 11 mph 1009.1mb 56f 67f
2:00 8 15 mph 1009mb 56f 67f
1:54 9 15 mph 1009.1mb 56f 68f
1:48 7 14 mph 1008.8mb 57f 68f
1:42 9 14 mph 1008.7mb 57f 68f
1:36 7 15 mph 1008.9mb 57f 68f
1:30 7 14 mph 1008.8mb 57f 68f
1:24 8 15 mph 1008.8mb 57f 68f
1:18 9 17 mph 1008.8mb 57f 68f
1:12 8 15 mph 1008.8mb 57f 68f
1:06 9 16 mph 1008.8mb 57f 68f
1:00 8 16 mph 1008.8mb 57f 68f
12:54 9 15 mph 1008.8mb 57f 68f
12:48 11 18 mph 1008.9mb 57f 68f
12:42 7 13 mph 1008.8mb 57f 68f
12:36 9 16 mph 1008.8mb 57f 68f
12:30 11 18 mph 1009.1mb 58f 67f
12:24 11 18 mph 1009.5mb 58f 67f
12:18 13 22 mph 1009.7mb 58f 67f
12:12 14 22 mph 1009.8mb 58f 67f
12:06 10 16 mph 1009.9mb 58f 67f
12:00 9 13 mph 1010.2mb 58f 68f
Ter 08/15 11:54 8 14 mph 1010.3mb 58f 68f
11:48 8 14 mph 1010.4mb 58f 68f
11:42 8 11 mph 1010.4mb 58f 68f
11:36 6 14 mph 1010.6mb 58f 68f
11:30  -  mph 1010.6mb 58f 68f
11:24  -  mph 1010.6mb 58f 68f
11:18 7 13 mph 1010.6mb 58f 68f
11:12 7 13 mph 1010.7mb 58f 69f
11:06 7 13 mph 1010.5mb 58f 69f
11:00 6 20 mph 1010.6mb 58f 69f
10:54 11 20 mph 1010.6mb 59f 69f
10:48 11 21 mph 1010.6mb 59f 69f